Terminal Aerodrome Forecast
Issued by NWS Twin Cities, MN

Home | Current Version | Previous Version | Text Only | Print | Product List | Glossary On
Versions: 1 2 3 4 5 6 7 8 9 10 11 12 13 14 15 16 17
000
FTUS43 KMPX 302052 AAA
TAFEAU
TAF AMD
KEAU 302052Z 3021/3118 20006KT P6SM SCT080
     FM311100 31005KT P6SM SCT250
     FM311600 35007KT P6SM OVC020=

USA.gov is the U.S. government's official web portal to all federal, state and local government web resources and services.